GW0560 Weather Reports


time (UTC)temp
C
wind
direction
speed
KPH
gust
KPH
rain 1hr
cm
rain 24hr
cm
rain mn
cm
humidity
%
barometer
mb
20260510231555 13 240 8.0 17.7 0.00 0.00 0.00 36 1018.1
20260510230055 13 277 8.0 19.3 0.00 0.00 0.00 36 1018.1
20260510224553 13 304 11.3 24.1 0.00 0.00 0.00 36 1018.0
20260510223106 13 302 8.0 19.3 0.00 0.00 0.00 38 1018.0
20260510221553 13 331 8.0 17.7 0.00 0.00 0.00 38 1017.9
20260510220055 12 327 3.2 19.3 0.00 0.00 0.00 39 1018.0
20260510214550 12 286 9.7 17.7 0.00 0.00 0.00 36 1017.8
20260510213102 13 306 9.7 16.1 0.00 0.00 0.00 35 1017.6
20260510211550 13 246 11.3 24.1 0.00 0.00 0.00 35 1017.3
20260510210053 13 279 11.3 25.7 0.00 0.00 0.00 35 1017.2
20260510204556 13 256 11.3 24.1 0.00 0.00 0.00 34 1017.2
20260510203051 13 269 6.4 16.1 0.00 0.00 0.00 35 1017.2
20260510201550 13 246 6.4 22.5 0.00 0.00 0.00 35 1017.3
20260510200049 13 252 11.3 22.5 0.00 0.00 0.00 33 1017.5
20260510194556 13 247 9.7 19.3 0.00 0.00 0.00 34 1017.6
20260510193052 13 279 3.2 14.5 0.00 0.00 0.00 35 1017.7
20260510191553 12 254 6.4 22.5 0.00 0.00 0.00 33 1017.6
20260510190056 13 254 6.4 20.9 0.00 0.00 0.00 35 1017.7
20260510184559 12 306 6.4 16.1 0.00 0.00 0.00 36 1017.6
20260510183102 12 259 11.3 19.3 0.00 0.00 0.00 35 1017.5
20260510181635 12 301 9.7 25.7 0.00 0.00 0.00 35 1017.3
20260510180107 12 217 11.3 24.1 0.00 0.00 0.00 36 1017.2
20260510174602 12 244 8.0 25.7 0.00 0.00 0.00 34 1017.2
20260510173058 12 355 9.7 27.4 0.00 0.00 0.00 33 1017.1
20260510171558 12 270 9.7 27.4 0.00 0.00 0.00 37 1017.4
20260510164558 11 259 9.7 30.6 0.00 0.00 0.00 38 1017.5
20260510163058 11 269 14.5 25.7 0.00 0.00 0.00 38 1017.5
20260510161555 11 280 11.3 22.5 0.00 0.00 0.00 38 1017.3
20260510160058 10 301 4.8 27.4 0.00 0.00 0.00 40 1017.3
20260510154558 10 335 6.4 20.9 0.00 0.00 0.00 42 1017.3
20260510153056 10 5 8.0 22.5 0.00 0.00 0.00 42 1017.2
20260510151552 10 327 9.7 22.5 0.00 0.00 0.00 44 1017.1
20260510150054 10 325 9.7 20.9 0.00 0.00 0.00 43 1017.0
20260510144553 10 313 8.0 16.1 0.00 0.00 0.00 44 1017.0
20260510143056 9 249 9.7 19.3 0.00 0.00 0.00 44 1016.9
20260510141552 8 253 8.0 17.7 0.00 0.00 0.00 46 1016.7
20260510140052 8 276 4.8 17.7 0.00 0.00 0.00 49 1016.7
20260510134604 8 153 9.7 19.3 0.00 0.05 0.00 50 1016.7
20260510133053 8 250 6.4 12.9 0.00 0.05 0.00 51 1016.5
20260510131552 7 279 6.4 14.5 0.00 0.05 0.00 51 1016.3
20260510130107 7 323 4.8 9.7 0.00 0.05 0.00 54 1016.1
20260510124555 7 265 3.2 11.3 0.00 0.05 0.00 55 1016.1
20260510123058 6 215 3.2 8.0 0.00 0.05 0.00 65 1015.8
20260510121555 5 238 3.2 6.4 0.00 0.05 0.00 72 1015.7
20260510120056 4 284 3.2 6.4 0.00 0.05 0.00 78 1015.5
20260510114559 2 255 0.0 3.2 0.00 0.05 0.00 87 1015.3
20260510113053 1 0 0.0 0.0 0.00 0.05 0.00 90 1015.2
20260510111553 0 0 0.0 0.0 0.00 0.05 0.00 90 1015.0
20260510110053 0 0 0.0 0.0 0.00 0.05 0.00 89 1014.8
20260510104554 0 0 0.0 0.0 0.00 0.05 0.00 88 1014.7
20260510103051 0 0 0.0 0.0 0.00 0.05 0.00 87 1014.5
20260510101600 0 0 0.0 0.0 0.00 0.05 0.00 88 1014.1
20260510100133 0 0 0.0 0.0 0.00 0.05 0.00 84 1014.0
20260510094556 1 0 0.0 0.0 0.00 0.05 0.00 85 1013.8
20260510093054 1 0 0.0 0.0 0.00 0.05 0.00 85 1013.9
20260510091549 1 0 0.0 0.0 0.00 0.05 0.00 83 1013.8
20260510090052 2 0 0.0 0.0 0.00 0.05 0.00 80 1013.6
20260510084553 2 0 0.0 0.0 0.00 0.05 0.00 78 1013.2
20260510083101 3 0 0.0 0.0 0.00 0.05 0.00 75 1012.9
20260510081553 3 0 0.0 0.0 0.00 0.05 0.00 77 1012.8
20260510080056 4 0 0.0 0.0 0.00 0.05 0.00 75 1012.5
20260510074555 5 0 0.0 0.0 0.00 0.05 0.00 65 1012.3
20260510073053 5 301 0.0 3.2 0.00 0.05 0.00 63 1012.3
20260510071557 6 0 0.0 6.4 0.00 0.05 0.00 63 1012.0
20260510070051 6 313 1.6 8.0 0.00 0.05 0.00 60 1011.9
20260510064553 6 344 1.6 6.4 0.00 0.05 0.00 59 1011.7
20260510063057 7 0 1.6 6.4 0.00 0.05 0.00 59 1011.6
20260510061555 7 327 1.6 9.7 0.00 0.05 0.00 54 1011.5
20260510060055 7 333 3.2 14.5 0.00 0.05 0.00 53 1011.3
20260510054552 8 355 4.8 14.5 0.00 0.05 0.00 54 1011.0
20260510053053 8 338 3.2 9.7 0.00 0.05 0.00 57 1010.8
20260510051551 8 339 3.2 9.7 0.00 0.05 0.00 58 1010.6
20260510050052 8 343 4.8 16.1 0.00 0.05 0.00 58 1010.2
20260510044556 9 9 9.7 17.7 0.00 0.05 0.00 60 1010.0
20260510043056 9 0 1.6 6.4 0.00 0.05 0.00 64 1009.6
20260510041551 9 348 1.6 8.0 0.00 0.05 0.00 65 1009.4
20260510040100 8 317 1.6 4.8 0.00 0.05 0.00 66 1009.2
20260510034603 10 0 0.0 0.0 0.00 0.05 0.05 68 1008.8
20260510033112 10 0 0.0 4.8 0.00 0.05 0.05 61 1008.6
20260510031554 11 0 0.0 1.6 0.00 0.05 0.05 60 1008.3
20260510030052 11 5 0.0 4.8 0.00 0.05 0.05 56 1008.2
20260510024557 12 0 1.6 12.9 0.00 0.05 0.05 53 1008.0
20260510023052 12 360 4.8 16.1 0.00 0.05 0.05 51 1007.8
20260510021553 13 309 3.2 12.9 0.00 0.05 0.05 49 1007.5
20260510020051 13 327 4.8 19.3 0.00 0.05 0.05 48 1007.0
20260510014551 14 330 8.0 19.3 0.00 0.05 0.05 47 1006.4
20260510013054 14 340 8.0 19.3 0.00 0.05 0.05 47 1005.8
20260510011555 14 283 8.0 19.3 0.00 0.05 0.05 46 1005.6
20260510010050 15 322 9.7 29.0 0.00 0.05 0.05 45 1005.3
20260510004552 15 311 12.9 27.4 0.00 0.05 0.05 44 1004.9
20260510003108 15 326 9.7 25.7 0.00 0.05 0.05 44 1004.7
20260510001552 16 299 19.3 32.2 0.00 0.05 0.05 40 1004.2
20260509234601 17 304 16.1 33.8 0.00 0.05 0.05 38 1003.3
20260509233051 17 345 16.1 30.6 0.00 0.05 0.05 37 1003.1